| time (UTC) | temp C | wind direction | speed KPH | gust KPH | rain 1hr cm | rain 24hr cm | rain mn cm | humidity % | barometer mb |
| 20260902153551 | 23 | 309 | 0.0 | 8.0 | 0.00 | 0.05 | 0.00 | 10 | 1022.4 |
| 20260902152650 | 24 | 328 | 0.0 | 3.2 | 0.00 | 0.05 | 0.00 | 10 | 1022.6 |
| 20260902151750 | 24 | 306 | 0.0 | 4.8 | 0.00 | 0.05 | 0.00 | 10 | 1022.6 |
| 20260902150850 | 25 | 286 | 1.6 | 6.4 | 0.00 | 0.05 | 0.00 | 10 | 1022.7 |
| 20260902145950 | 25 | 314 | 1.6 | 11.3 | 0.00 | 0.05 | 0.00 | 10 | 1022.8 |
| 20260902145051 | 23 | 317 | 1.6 | 9.7 | 0.00 | 0.05 | 0.00 | 10 | 1022.7 |
| 20260902144150 | 24 | 312 | 4.8 | 14.5 | 0.00 | 0.05 | 0.00 | 10 | 1022.7 |
| 20260902143250 | 25 | 292 | 3.2 | 11.3 | 0.00 | 0.05 | 0.00 | 10 | 1022.8 |
| 20260902142350 | 25 | 329 | 1.6 | 8.0 | 0.00 | 0.05 | 0.00 | 10 | 1022.9 |
| 20260902140550 | 24 | 297 | 1.6 | 11.3 | 0.00 | 0.05 | 0.00 | 10 | 1023.2 |
| 20260902135650 | 25 | 286 | 3.2 | 9.7 | 0.00 | 0.05 | 0.00 | 10 | 1023.1 |
| 20260902134750 | 26 | 344 | 0.0 | 6.4 | 0.00 | 0.05 | 0.00 | 10 | 1023.1 |
| 20260902133850 | 25 | 300 | 1.6 | 9.7 | 0.00 | 0.05 | 0.00 | 10 | 1023.1 |
| 20260902132950 | 25 | 275 | 0.0 | 6.4 | 0.00 | 0.05 | 0.00 | 10 | 1023.1 |
| 20260902132050 | 24 | 310 | 0.0 | 4.8 | 0.00 | 0.05 | 0.00 | 10 | 1023.2 |
| 20260902131150 | 24 | 316 | 0.0 | 11.3 | 0.00 | 0.05 | 0.00 | 10 | 1023.5 |
| 20260902130250 | 24 | 321 | 3.2 | 11.3 | 0.00 | 0.05 | 0.00 | 10 | 1023.5 |
| 20260902125351 | 24 | 306 | 0.0 | 8.0 | 0.00 | 0.05 | 0.00 | 10 | 1023.5 |
| 20260902123550 | 24 | 307 | 3.2 | 8.0 | 0.00 | 0.05 | 0.00 | 10 | 1023.5 |
| 20260902122650 | 25 | 210 | 1.6 | 6.4 | 0.00 | 0.05 | 0.00 | 10 | 1023.4 |
| 20260902121750 | 26 | 286 | 0.0 | 6.4 | 0.00 | 0.05 | 0.00 | 10 | 1023.5 |
| 20260902120850 | 26 | 326 | 1.6 | 6.4 | 0.00 | 0.05 | 0.00 | 10 | 1023.5 |
| 20260902115051 | 24 | 305 | 3.2 | 12.9 | 0.00 | 0.05 | 0.00 | 10 | 1023.6 |
| 20260902114150 | 24 | 313 | 3.2 | 9.7 | 0.00 | 0.05 | 0.00 | 10 | 1023.8 |
| 20260902113250 | 24 | 316 | 3.2 | 14.5 | 0.00 | 0.05 | 0.00 | 10 | 1023.8 |
| 20260902112350 | 24 | 309 | 3.2 | 9.7 | 0.00 | 0.05 | 0.00 | 10 | 1023.8 |
| 20260902111450 | 24 | 296 | 3.2 | 11.3 | 0.00 | 0.05 | 0.00 | 10 | 1023.9 |
| 20260902110550 | 23 | 313 | 1.6 | 11.3 | 0.00 | 0.05 | 0.00 | 10 | 1024.1 |
| 20260902105650 | 25 | 332 | 1.6 | 12.9 | 0.00 | 0.05 | 0.00 | 10 | 1024.0 |
| 20260902104750 | 24 | 319 | 0.0 | 8.0 | 0.00 | 0.05 | 0.00 | 10 | 1024.3 |
| 20260902103850 | 24 | 312 | 3.2 | 17.7 | 0.00 | 0.05 | 0.00 | 10 | 1024.1 |
| 20260902102950 | 23 | 346 | 8.0 | 17.7 | 0.00 | 0.05 | 0.00 | 10 | 1024.2 |
| 20260902102050 | 22 | 353 | 3.2 | 12.9 | 0.00 | 0.05 | 0.00 | 10 | 1024.4 |
| 20260902101150 | 23 | 1 | 4.8 | 9.7 | 0.00 | 0.05 | 0.00 | 10 | 1024.2 |
| 20260902095351 | 22 | 345 | 1.6 | 8.0 | 0.00 | 0.05 | 0.00 | 10 | 1024.4 |
| 20260902094450 | 21 | 1 | 3.2 | 6.4 | 0.00 | 0.05 | 0.00 | 11 | 1024.3 |
| 20260902093550 | 21 | 355 | 3.2 | 11.3 | 0.00 | 0.05 | 0.00 | 11 | 1024.5 |
| 20260902092650 | 22 | 327 | 1.6 | 6.4 | 0.00 | 0.05 | 0.00 | 10 | 1024.5 |
| 20260902091750 | 22 | 316 | 0.0 | 9.7 | 0.00 | 0.05 | 0.00 | 12 | 1024.7 |
| 20260902090850 | 21 | 314 | 1.6 | 3.2 | 0.00 | 0.05 | 0.00 | 15 | 1024.5 |
| 20260902085950 | 20 | 318 | 0.0 | 6.4 | 0.00 | 0.05 | 0.00 | 15 | 1024.4 |
| 20260902085050 | 21 | 321 | 0.0 | 3.2 | 0.00 | 0.05 | 0.00 | 13 | 1024.4 |
| 20260902083250 | 21 | 321 | 1.6 | 9.7 | 0.00 | 0.05 | 0.00 | 12 | 1024.2 |
| 20260902082350 | 22 | 315 | 0.0 | 3.2 | 0.00 | 0.05 | 0.00 | 12 | 1024.4 |
| 20260902081450 | 24 | 347 | 0.0 | 3.2 | 0.00 | 0.05 | 0.00 | 10 | 1024.4 |
| 20260902080550 | 25 | 1 | 0.0 | 4.8 | 0.00 | 0.05 | 0.00 | 10 | 1024.4 |
| 20260902075650 | 25 | 1 | 1.6 | 6.4 | 0.00 | 0.05 | 0.00 | 11 | 1024.3 |
| 20260902074750 | 24 | 134 | 1.6 | 6.4 | 0.00 | 0.05 | 0.00 | 12 | 1024.3 |
| 20260902073850 | 23 | 297 | 0.0 | 8.0 | 0.00 | 0.05 | 0.00 | 13 | 1024.3 |
| 20260902072950 | 23 | 350 | 1.6 | 8.0 | 0.00 | 0.05 | 0.00 | 13 | 1024.3 |
| 20260902072050 | 22 | 299 | 3.2 | 6.4 | 0.00 | 0.05 | 0.00 | 15 | 1024.4 |
| 20260902065350 | 22 | 270 | 1.6 | 4.8 | 0.00 | 0.05 | 0.00 | 24 | 1024.5 |
| 20260902064450 | 23 | 270 | 1.6 | 3.2 | 0.00 | 0.05 | 0.00 | 28 | 1024.4 |
| 20260902063550 | 22 | 270 | 0.0 | 3.2 | 0.00 | 0.05 | 0.00 | 35 | 1024.4 |
| 20260902062650 | 21 | 347 | 0.0 | 3.2 | 0.00 | 0.05 | 0.00 | 40 | 1024.4 |
| 20260902061750 | 21 | 1 | 0.0 | 1.6 | 0.00 | 0.05 | 0.00 | 55 | 1024.2 |
| 20260902060850 | 20 | 1 | 0.0 | 1.6 | 0.00 | 0.05 | 0.00 | 74 | 1024.5 |
| 20260902055950 | 17 | 1 | 0.0 | 3.2 | 0.00 | 0.05 | 0.00 | 75 | 1024.5 |
| 20260902055051 | 16 | 357 | 1.6 | 3.2 | 0.00 | 0.05 | 0.00 | 79 | 1024.2 |
| 20260902054150 | 15 | 316 | 0.0 | 3.2 | 0.00 | 0.05 | 0.00 | 98 | 1024.1 |
| 20260902053250 | 14 | 0 | 0.0 | 0.0 | 0.00 | 0.05 | 0.00 | 99 | 1024.1 |
| 20260902052350 | 12 | 0 | 0.0 | 0.0 | 0.00 | 0.05 | 0.00 | 91 | 1024.0 |
| 20260902051450 | 10 | 181 | 0.0 | 1.6 | 0.00 | 0.05 | 0.00 | 87 | 1024.1 |
| 20260902050550 | 10 | 314 | 0.0 | 1.6 | 0.00 | 0.05 | 0.00 | 86 | 1024.0 |
| 20260902045650 | 9 | 314 | 0.0 | 1.6 | 0.00 | 0.05 | 0.00 | 85 | 1024.1 |
| 20260902044750 | 9 | 0 | 0.0 | 0.0 | 0.00 | 0.05 | 0.00 | 85 | 1023.9 |
| 20260902043852 | 9 | 0 | 0.0 | 0.0 | 0.00 | 0.05 | 0.00 | 84 | 1023.9 |
| 20260902042950 | 9 | 314 | 0.0 | 1.6 | 0.00 | 0.05 | 0.00 | 83 | 1024.0 |
| 20260902041150 | 10 | 0 | 0.0 | 0.0 | 0.00 | 0.05 | 0.00 | 82 | 1023.8 |
| 20260902040250 | 10 | 0 | 0.0 | 0.0 | 0.00 | 0.05 | 0.00 | 82 | 1023.8 |
| 20260902035350 | 10 | 0 | 0.0 | 0.0 | 0.00 | 0.05 | 0.00 | 82 | 1023.9 |
| 20260902034450 | 10 | 0 | 0.0 | 0.0 | 0.00 | 0.05 | 0.00 | 82 | 1023.9 |
| 20260902033550 | 10 | 0 | 0.0 | 0.0 | 0.00 | 0.05 | 0.00 | 82 | 1024.0 |
| 20260902030850 | 11 | 0 | 0.0 | 0.0 | 0.00 | 0.05 | 0.00 | 82 | 1024.1 |
| 20260902025950 | 11 | 270 | 0.0 | 1.6 | 0.00 | 0.05 | 0.00 | 81 | 1024.0 |
| 20260902025050 | 10 | 0 | 0.0 | 0.0 | 0.00 | 0.05 | 0.00 | 81 | 1024.1 |
| 20260902024150 | 10 | 0 | 0.0 | 0.0 | 0.00 | 0.05 | 0.00 | 80 | 1024.2 |
| 20260902023250 | 10 | 0 | 0.0 | 0.0 | 0.00 | 0.05 | 0.00 | 79 | 1024.2 |
| 20260902013850 | 10 | 314 | 0.0 | 1.6 | 0.00 | 0.05 | 0.00 | 74 | 1024.2 |
| 20260902012950 | 10 | 0 | 0.0 | 0.0 | 0.00 | 0.05 | 0.00 | 74 | 1024.1 |
| 20260902012051 | 10 | 0 | 0.0 | 0.0 | 0.00 | 0.05 | 0.00 | 74 | 1024.0 |
| 20260902011150 | 10 | 0 | 0.0 | 0.0 | 0.00 | 0.10 | 0.00 | 73 | 1023.9 |
| 20260902010250 | 10 | 0 | 0.0 | 0.0 | 0.00 | 0.10 | 0.00 | 73 | 1024.0 |
| 20260902005350 | 10 | 0 | 0.0 | 0.0 | 0.00 | 0.10 | 0.00 | 73 | 1024.0 |
| 20260902004450 | 10 | 270 | 0.0 | 3.2 | 0.00 | 0.10 | 0.00 | 73 | 1024.0 |
| 20260902003550 | 10 | 270 | 0.0 | 3.2 | 0.00 | 0.10 | 0.00 | 73 | 1024.0 |
| 20260902002650 | 10 | 0 | 0.0 | 0.0 | 0.00 | 0.10 | 0.00 | 72 | 1024.1 |
| 20260902001750 | 10 | 0 | 0.0 | 0.0 | 0.00 | 0.10 | 0.00 | 72 | 1024.1 |
| 20260902000850 | 10 | 1 | 0.0 | 1.6 | 0.00 | 0.10 | 0.00 | 71 | 1024.1 |
| 20260901235950 | 10 | 1 | 0.0 | 3.2 | 0.00 | 0.10 | 0.00 | 71 | 1024.0 |
| 20260901235050 | 10 | 1 | 0.0 | 3.2 | 0.00 | 0.10 | 0.00 | 70 | 1024.1 |
| 20260901234150 | 10 | 0 | 0.0 | 0.0 | 0.00 | 0.10 | 0.00 | 69 | 1024.1 |
| 20260901233250 | 10 | 1 | 0.0 | 1.6 | 0.00 | 0.10 | 0.00 | 68 | 1024.2 |
| 20260901232350 | 10 | 1 | 0.0 | 1.6 | 0.00 | 0.10 | 0.00 | 68 | 1024.3 |
| 20260901231450 | 10 | 1 | 0.0 | 1.6 | 0.00 | 0.10 | 0.00 | 68 | 1024.1 |
| 20260901230550 | 10 | 0 | 0.0 | 0.0 | 0.00 | 0.10 | 0.00 | 67 | 1024.2 |
| 20260901225650 | 10 | 1 | 0.0 | 3.2 | 0.00 | 0.10 | 0.00 | 67 | 1024.1 |
| 20260901224750 | 10 | 0 | 0.0 | 0.0 | 0.00 | 0.10 | 0.00 | 66 | 1024.2 |
| 20260901223850 | 10 | 0 | 0.0 | 0.0 | 0.00 | 0.10 | 0.00 | 66 | 1024.1 |
| 20260901222950 | 10 | 0 | 0.0 | 0.0 | 0.00 | 0.10 | 0.00 | 66 | 1024.3 |
| 20260901222050 | 11 | 0 | 0.0 | 0.0 | 0.00 | 0.10 | 0.00 | 65 | 1024.3 |
| 20260901221150 | 11 | 0 | 0.0 | 0.0 | 0.00 | 0.10 | 0.00 | 66 | 1024.4 |
| 20260901220250 | 11 | 1 | 0.0 | 1.6 | 0.00 | 0.10 | 0.00 | 65 | 1024.3 |
| 20260901215349 | 11 | 1 | 0.0 | 3.2 | 0.00 | 0.10 | 0.10 | 66 | 1024.4 |
| 20260901214450 | 11 | 1 | 0.0 | 3.2 | 0.00 | 0.10 | 0.10 | 65 | 1024.4 |
| 20260901213549 | 11 | 1 | 0.0 | 3.2 | 0.00 | 0.10 | 0.10 | 65 | 1024.4 |
| 20260901212650 | 11 | 1 | 0.0 | 3.2 | 0.05 | 0.10 | 0.10 | 64 | 1024.1 |
| 20260901211750 | 11 | 277 | 0.0 | 3.2 | 0.05 | 0.10 | 0.10 | 64 | 1024.4 |
| 20260901210850 | 11 | 352 | 0.0 | 3.2 | 0.05 | 0.10 | 0.10 | 63 | 1024.4 |
| 20260901205949 | 11 | 343 | 1.6 | 3.2 | 0.05 | 0.10 | 0.10 | 61 | 1024.1 |
| 20260901205050 | 11 | 287 | 0.0 | 3.2 | 0.05 | 0.10 | 0.10 | 60 | 1024.1 |
| 20260901204149 | 11 | 270 | 0.0 | 3.2 | 0.05 | 0.10 | 0.10 | 59 | 1024.0 |
| 20260901203250 | 11 | 270 | 0.0 | 3.2 | 0.00 | 0.03 | 0.03 | 57 | 1024.1 |
| 20260901202349 | 11 | 280 | 0.0 | 3.2 | 0.00 | 0.03 | 0.03 | 56 | 1023.9 |
| 20260901201450 | 11 | 314 | 0.0 | 1.6 | 0.00 | 0.03 | 0.03 | 55 | 1024.0 |
| 20260901200549 | 11 | 314 | 0.0 | 1.6 | 0.00 | 0.03 | 0.03 | 52 | 1024.0 |
| 20260901195650 | 11 | 314 | 0.0 | 3.2 | 0.00 | 0.03 | 0.03 | 51 | 1023.9 |
| 20260901194749 | 11 | 314 | 0.0 | 3.2 | 0.00 | 0.03 | 0.03 | 49 | 1024.0 |
| 20260901193850 | 12 | 314 | 0.0 | 3.2 | 0.00 | 0.03 | 0.03 | 49 | 1023.9 |
| 20260901192949 | 12 | 314 | 0.0 | 3.2 | 0.00 | 0.03 | 0.03 | 49 | 1024.0 |
| 20260901192050 | 12 | 1 | 0.0 | 3.2 | 0.00 | 0.03 | 0.03 | 48 | 1024.0 |
| 20260901191150 | 12 | 181 | 0.0 | 3.2 | 0.00 | 0.03 | 0.03 | 46 | 1023.9 |
| 20260901190249 | 12 | 181 | 0.0 | 3.2 | 0.00 | 0.05 | 0.03 | 42 | 1023.8 |
| 20260901184450 | 13 | 330 | 0.0 | 1.6 | 0.00 | 0.05 | 0.03 | 40 | 1023.6 |
| 20260901183549 | 13 | 276 | 0.0 | 1.6 | 0.00 | 0.05 | 0.03 | 39 | 1023.6 |
| 20260901182650 | 13 | 270 | 0.0 | 3.2 | 0.00 | 0.05 | 0.03 | 36 | 1023.4 |
| 20260901181750 | 14 | 285 | 0.0 | 3.2 | 0.00 | 0.05 | 0.03 | 34 | 1023.4 |
| 20260901180849 | 15 | 270 | 0.0 | 1.6 | 0.00 | 0.05 | 0.03 | 31 | 1023.2 |
| 20260901175950 | 15 | 270 | 0.0 | 1.6 | 0.00 | 0.05 | 0.03 | 29 | 1023.1 |
| 20260901175049 | 16 | 270 | 0.0 | 1.6 | 0.00 | 0.05 | 0.03 | 26 | 1023.1 |
| 20260901174150 | 16 | 270 | 0.0 | 1.6 | 0.00 | 0.05 | 0.03 | 23 | 1023.0 |
| 20260901173250 | 17 | 270 | 0.0 | 1.6 | 0.00 | 0.05 | 0.03 | 20 | 1022.9 |
| 20260901172349 | 17 | 0 | 0.0 | 0.0 | 0.00 | 0.05 | 0.03 | 18 | 1023.1 |
| 20260901171450 | 18 | 270 | 0.0 | 1.6 | 0.00 | 0.05 | 0.03 | 17 | 1023.0 |
| 20260901170549 | 19 | 296 | 0.0 | 3.2 | 0.00 | 0.05 | 0.03 | 13 | 1022.9 |
| 20260901164749 | 20 | 307 | 0.0 | 6.4 | 0.00 | 0.05 | 0.03 | 12 | 1023.0 |
| 20260901163850 | 20 | 311 | 1.6 | 6.4 | 0.00 | 0.05 | 0.03 | 11 | 1023.0 |
| 20260901162949 | 20 | 347 | 0.0 | 6.4 | 0.00 | 0.05 | 0.03 | 10 | 1023.2 |
| 20260901162050 | 21 | 310 | 3.2 | 6.4 | 0.00 | 0.05 | 0.03 | 10 | 1023.2 |
| 20260901161149 | 21 | 296 | 3.2 | 4.8 | 0.00 | 0.05 | 0.03 | 10 | 1023.2 |
| 20260901160249 | 22 | 307 | 0.0 | 6.4 | 0.00 | 0.05 | 0.03 | 10 | 1023.1 |
| 20260901155349 | 23 | 299 | 1.6 | 9.7 | 0.00 | 0.05 | 0.03 | 10 | 1023.1 |
| 20260901154450 | 23 | 295 | 3.2 | 6.4 | 0.00 | 0.05 | 0.03 | 10 | 1023.0 |